Casa Grande, AZ

10:34 AM MST on November 13, 2019 (GMT -0700)
Casa Grande Municipal

Weather History for KCGZ - September, 2019

Change the Weather History Date:

Monday, September 9, 2019

  Actual Average Record
Temperature  
Mean Temperature 87 °F -  
Max Temperature 97 °F 97 °F 102 °F (2000)
Min Temperature 77 °F 71 °F 64 °F (2010)
Cooling Degree Days 22    
Growing Degree Days 37 (Base 50)    
Moisture  
Dew Point 63 °F    
Average Humidity 46    
Maximum Humidity 74    
Minimum Humidity 25    
Precipitation  
Precipitation 0.00 in - - ()
Sea Level Pressure  
Sea Level Pressure 29.79 in    
Wind  
Wind Speed 6 mph ()    
Max Wind Speed 16 mph    
Max Gust Speed 29 mph    
Visibility 10.0 miles    
Events      
Averages and records for this station are not official NWS values.
T = Trace of Precipitation, MM = Missing Value Source: Averaged Metar Reports

Daily Weather History Graph

Daily Weather History Graph

Search for Another Location

Airport or City:

Astronomy

Sep. 09, 2019 Rise Set
Actual Time 6:06 AM MST 6:41 PM MST
Civil Twilight 5:41 AM MST 7:06 PM MST
Nautical Twilight 5:12 AM MST 7:35 PM MST
Astronomical Twilight 4:42 AM MST 8:05 PM MST
Moon 4:25 PM MST (9/9) 1:56 AM MST (9/9)
Length of Visible Light 13h 24m
Length of Day
12h 34m
Waxing Gibbous, 83% of the Moon is Illuminated
Sep 9
Waxing Gibbous
Sep 13
Full
Sep 21
Last Quarter
Sep 28
New
Oct 5
First Quarter

Hourly Weather History & Observations

Time (MST) Temp. Heat Index Dew Point Humidity Pressure Visibility Wind Dir Wind Speed Gust Speed Precip Events Conditions
12:56 AM 82.0 °F 83.0 °F 62.1 °F 51% 29.79 in 10.0 mi SW 3.5 mph - N/A   Clear
1:56 AM 81.0 °F 81.9 °F 62.1 °F 52% 29.79 in 10.0 mi WSW 8.1 mph - N/A   Clear
2:56 AM 79.0 °F - 63.0 °F 58% 29.80 in 10.0 mi WNW 3.5 mph - N/A   Clear
3:56 AM 80.1 °F 82.3 °F 66.9 °F 64% 29.81 in 10.0 mi Calm Calm - N/A   Clear
4:56 AM 77.0 °F - 66.0 °F 69% 29.81 in 10.0 mi NW 3.5 mph - N/A   Clear
5:56 AM 77.0 °F - 68.0 °F 74% 29.83 in 10.0 mi WSW 3.5 mph - N/A   Clear
6:56 AM 80.1 °F 82.9 °F 69.1 °F 69% 29.85 in 10.0 mi South 3.5 mph - N/A   Clear
7:56 AM 82.9 °F 87.0 °F 70.0 °F 65% 29.87 in 10.0 mi South 10.4 mph - N/A   Clear
8:56 AM 84.9 °F 89.4 °F 70.0 °F 61% 29.87 in 10.0 mi SSW 9.2 mph - N/A   Partly Cloudy
9:56 AM 87.1 °F 90.6 °F 68.0 °F 53% 29.87 in 10.0 mi SW 12.7 mph - N/A   Partly Cloudy
10:56 AM 89.1 °F 91.3 °F 66.0 °F 46% 29.86 in 10.0 mi South 11.5 mph 16.1 mph N/A   Scattered Clouds
11:56 AM 91.9 °F 93.3 °F 64.0 °F 39% 29.84 in 10.0 mi SSE 8.1 mph - N/A   Partly Cloudy
12:56 PM 93.9 °F 94.8 °F 62.1 °F 35% 29.82 in 10.0 mi SSW 10.4 mph 16.1 mph N/A   Clear
1:56 PM 97.0 °F 96.1 °F 57.9 °F 27% 29.78 in 10.0 mi South 16.1 mph 28.8 mph N/A   Clear
2:56 PM 96.1 °F 96.0 °F 60.1 °F 30% 29.75 in 10.0 mi West 12.7 mph 17.3 mph N/A   Partly Cloudy
3:56 PM 97.0 °F 96.5 °F 59.0 °F 28% 29.73 in 10.0 mi SSW 9.2 mph - N/A   Partly Cloudy
4:56 PM 97.0 °F 96.1 °F 57.9 °F 27% 29.71 in 10.0 mi SSE 8.1 mph - N/A   Partly Cloudy
5:56 PM 96.1 °F 94.1 °F 55.0 °F 25% 29.70 in 9.0 mi WSW 10.4 mph - N/A   Clear
6:56 PM 93.0 °F 91.1 °F 55.0 °F 28% 29.71 in 10.0 mi WSW 5.8 mph - N/A   Clear
7:56 PM 91.0 °F 90.0 °F 57.9 °F 33% 29.72 in 10.0 mi WSW 4.6 mph - N/A   Clear
8:56 PM 88.0 °F 86.7 °F 57.0 °F 35% 29.73 in 10.0 mi West 3.5 mph - N/A   Partly Cloudy
9:56 PM 87.1 °F 86.1 °F 57.9 °F 37% 29.75 in 10.0 mi WSW 6.9 mph - N/A   Clear
10:56 PM 86.0 °F 86.1 °F 61.0 °F 43% 29.76 in 10.0 mi South 4.6 mph - N/A   Partly Cloudy
11:56 PM 86.0 °F 89.4 °F 68.0 °F 55% 29.78 in 10.0 mi SW 6.9 mph - N/A   Clear